Flag for Germany Weather past 2 weeks in Stendal, Saxony-Anhalt, Germany

Now
60 °F

Scattered clouds.


Feels Like: 60 °F
Forecast: 54 / 68 °F
Wind: 5 mph from Southwest

Location: Magdeburg

Current Time: Jun 2, 2015 at 9:35:32 AM

Latest Report: Jun 2, 2015 at 9:00 AM


Visibility: 22 mi

Pressure: 29.92 "Hg

Humidity: 71%

Dew point: 50 °F

Location of StendalLocation

Historic Weather in Stendal — Graph

°F

Stendal temperature yesterday

Maximum temperature yesterday: 64 °F (at 1:00 AM)
Minimum temperature yesterday: 51 °F (at 11:00 PM)
Average temperature yesterday: 58 °F

Past Weeks' High & Low Weather Summary

 TemperatureHumidityPressure
High72 °F (May 31, 6:00 PM)98% (Jun 2, 4:00 AM)30.32 "Hg (Jun 2, 4:00 AM)
Low40 °F (May 21, 6:00 AM)27% (May 22, 3:00 PM)29.61 "Hg (May 19, 2:00 AM)
Average56 °F64%29.99 "Hg
* Reported May 18 8:00 AM — Jun 2 8:00 AM, Stendal, Weather by CustomWeather, © 2015

Note: Actual official high and low records may vary slightly from our data, if they occured in-between our weather recording intervals... More about our weather records

Advertising

Stendal weather history for previous 24 hours

 ConditionsComfort  
Time TempWeatherWind HumidityBarometerVisibility
8:00 AM
Tue, Jun 2
56 °FPartly sunny.6 mph78%29.93 "Hg16 mi
7:00 AM54 °FPartly sunny.3 mph86%29.94 "Hg11 mi
4:00 AM49 °FFog.2 mph98%29.98 "Hg1 mi
3:00 AM49 °FFog.1 mph97%30.00 "Hg2 mi
2:00 AM48 °FFog.2 mph97%29.99 "Hg2 mi
1:00 AM48 °FClear.1 mph97%30.01 "Hg3 mi
12:00 AM49 °FFog.2 mph95%30.03 "Hg4 mi
11:00 PM
Mon, Jun 1
51 °FFog.2 mph93%30.03 "Hg4 mi
10:00 PM52 °FPassing clouds.2 mph91%30.04 "Hg7 mi
9:00 PM55 °FPartly sunny.2 mph83%30.03 "Hg12 mi
8:00 PM57 °FPartly sunny.3 mph78%30.04 "Hg16 mi
7:00 PM59 °FOvercast.3 mph67%30.04 "Hg16 mi
6:00 PM58 °FOvercast.2 mph72%30.05 "Hg16 mi
4:00 PM58 °FOvercast.2 mph68%30.06 "Hg16 mi
3:00 PM58 °FOvercast.3 mph66%30.05 "Hg25 mi
2:00 PM57 °FOvercast.1 mph65%30.05 "Hg25 mi
1:00 PM57 °FOvercast.2 mph64%30.03 "Hg25 mi
12:00 PM57 °FOvercast.2 mph72%30.02 "Hg25 mi
10:00 AM53 °FOvercast.2 mph89%30.01 "Hg19 mi
9:00 AM53 °FLight rain. Overcast.2 mph92%29.98 "Hg4 mi
Weather by CustomWeather, © 2015

See weather overviewHow to use our weather pages